Regional Weather Roundup
Issued by NWS

Home | Current Version | Previous Version | Text Only | Print | Product List | Glossary Off
Versions: 1 2 3 4 5 6 7 8 9 10 11 12 13 14 15 16 17 18 19 20 21 22 23 24 25 26 27 28 29 30 31 32 33 34 35 36 37 38 39 40 41 42 43 44 45 46 47 48 49 50

000
ASUS43 KIND 242109
RWRIN

WEATHER ROUNDUP FOR INDIANA
NATIONAL WEATHER SERVICE INDIANAPOLIS IN
500 PM EDT THU MAY 24 2018

NOTE: "FAIR" INDICATES FEW OR NO CLOUDS BELOW 12,000 FEET WITH NO
SIGNIFICANT WEATHER AND/OR OBSTRUCTIONS TO VISIBILITY.

* - STATION DOES NOT REPORT WEATHER SUCH AS PRECIPITATION OR FOG.

+ - STATION NOT QUALITY CONTROLLED BY THE NATIONAL WEATHER SERVICE.
    USE DATA WITH CAUTION...ESPECIALLY DEWPOINT AND RELATIVE
    HUMIDITY OBSERVATIONS.

INZ001>003-010>013-019-020-242200-
NORTHWEST INDIANA

CITY           SKY/WX    TMP DP  RH WIND       PRES   REMARKS
GARY /AIRPORT/ MOSUNNY   84  52  32 NE8       30.11F
KNOX *+        FAIR      82  48  30 CALM      30.12F
LA PORTE +     FAIR      82  52  35 CALM      30.14S
MICHIGAN CITY+ FAIR      82  52  34 E5        30.12F
MONTICELLO +   FAIR     N/A N/A N/A S3        30.11F
RENSSELAER +   FAIR      84  23  10 NE3       30.11F
VALPARAISO     FAIR      85  53  33 MISG      30.12F

$$

LMZ046-743>745-242200-
SOUTHERN LAKE MICHIGAN

STATION/POSITION TIME  TEMP    WIND        PRES    WAVE
                       AIR SEA DIR/SP/G            HT
                 (UTC) (F)     (DEG/KT/KT) (MB)    (FT)
BURNS HARBOR     2104   69      50/  5/ 10 1020.0
MICHIGAN CITY    2040   67      40/  9/  9   N/A
5NW MICH CITY    2100   66 62   30/  4/  6   N/A     0

$$

INZ004-005-014>016-021>024-242200-
NORTH CENTRAL INDIANA

CITY           SKY/WX    TMP DP  RH WIND       PRES   REMARKS
ELKHART        FAIR      86  48  26 S8        30.13F
GOSHEN         FAIR      82  52  35 S7        30.13F
LOGANSPORT +   FAIR      82  43  24 E7        30.13F
PERU/GRISSOM   SUNNY     83  50  30 S6        30.11F
ROCHESTER +    FAIR      86  41  20 S3        30.13F
SOUTH BEND     FAIR      81  49  32 S6        30.13F
WARSAW +       FAIR      81  46  30 SE7       30.14F

$$

INZ006>009-017-018-025>027-242200-
NORTHEAST INDIANA

CITY           SKY/WX    TMP DP  RH WIND       PRES   REMARKS
ANGOLA *+      FAIR      81  48  32 VRB5      30.14F
AUBURN +       FAIR      81  48  32 S3        30.15F
FORT WAYNE     FAIR      83  46  27 CALM      30.14F
HUNTINGTON +   FAIR      81  46  29 E7        30.13F
KENDALLVILLE + FAIR     N/A N/A N/A SE7       30.15F

$$

INZ028-029-035-036-043>045-051>053-242200-
WEST CENTRAL INDIANA

CITY           SKY/WX    TMP DP  RH WIND       PRES   REMARKS
CRAWFORDSVL +  FAIR      80  49  33 CALM      30.11F
GREENCASTLE +  FAIR      82  48  30 CALM      30.11F
LAFAYETTE      FAIR      84  47  27 CALM      30.10F
TERRE HAUTE    FAIR      85  52  32 CALM      30.09F

$$

INZ030>032-037>040-046>048-054>057-064-065-242200-
CENTRAL INDIANA

CITY           SKY/WX    TMP DP  RH WIND       PRES   REMARKS
COLUMBUS       SUNNY     81  48  32 E6        30.11F
FISHERS *+     FAIR      84  55  37 CALM      30.12F
FRANKFORT +    FAIR      87  52  29 S6        30.13F
GREENWOOD *+   FAIR      82  49  31 S6        30.12F
INDIANAPOLIS   FAIR      83  50  31 SE8       30.11F
-EAGLE CREEK   FAIR      83  49  30 SE7       30.11F
KOKOMO +       FAIR      83  48  29 S8        30.13F
MARION +       FAIR      82  45  27 CALM      30.14F
MT COMFORT *+  FAIR      82  55  39 S7        30.12F
SHELBYVILLE    FAIR      85  48  27 E7        30.11F
ZIONSVILLE +   FAIR      82  48  30 SE5       30.13F

$$

INZ033-034-041-042-049-050-058-059-242200-
EAST CENTRAL INDIANA

CITY           SKY/WX    TMP DP  RH WIND       PRES   REMARKS
MUNCIE         FAIR      84  47  27 VRB5      30.13F
RICHMOND +     FAIR      79  52  38 E7        30.14F

$$

INZ060-061-067>069-081>083-085>088-242200-
SOUTHWEST INDIANA

CITY           SKY/WX    TMP DP  RH WIND       PRES   REMARKS
EVANSVILLE     FAIR      84  58  40 SE7       30.07F
HUNTINGBURG +  FAIR      84  58  40 N5        30.08F
WASHINGTON +   FAIR      85  44  23 NE5       30.08F

$$

INZ062-063-066-070>080-084-089>092-242200-
SOUTH CENTRAL AND SOUTHEAST INDIANA

CITY           SKY/WX    TMP DP  RH WIND       PRES   REMARKS
BATESVILLE +   SUNNY     81  52  36 E5        30.12F
BEDFORD +      FAIR      82  48  30 E6        30.10F
BLOOMINGTON    FAIR      83  57  41 SE8       30.11F
FRENCH LICK *+ FAIR      82  32  16 CALM      30.10F
MADISON *+     FAIR      82  50  32 CALM      30.12F
NORTH VERNON + FAIR      81  54  39 CALM      30.11F
SEYMOUR +      FAIR      84  54  34 E3        30.10F

$$




USA.gov is the U.S. government's official web portal to all federal, state and local government web resources and services.